| time (UTC) | temp F | wind direction | speed MPH | gust MPH | rain 1hr in | rain 24hr in | rain mn in | humidity % | barometer mb |
| 20260507082917 | 46 | 0 | 0.0 | 6.0 | 0.00 | 0.07 | 0.00 | 87 | 1011.7 |
| 20260507081917 | 46 | 0 | 0.0 | 4.0 | 0.00 | 0.08 | 0.00 | 86 | 1011.7 |
| 20260507080917 | 46 | 0 | 0.0 | 11.0 | 0.00 | 0.08 | 0.00 | 86 | 1011.5 |
| 20260507075917 | 46 | 46 | 1.0 | 6.0 | 0.00 | 0.08 | 0.00 | 86 | 1011.4 |
| 20260507074917 | 46 | 0 | 0.0 | 8.0 | 0.00 | 0.08 | 0.00 | 86 | 1011.4 |
| 20260507073917 | 46 | 0 | 0.0 | 4.0 | 0.00 | 0.08 | 0.00 | 86 | 1011.2 |
| 20260507072917 | 46 | 0 | 0.0 | 4.0 | 0.00 | 0.08 | 0.00 | 86 | 1011.0 |
| 20260507071917 | 46 | 62 | 1.0 | 9.0 | 0.00 | 0.09 | 0.00 | 86 | 1011.0 |
| 20260507070917 | 46 | 0 | 0.0 | 11.0 | 0.00 | 0.10 | 0.00 | 86 | 1010.9 |
| 20260507065917 | 46 | 0 | 0.0 | 8.0 | 0.00 | 0.10 | 0.00 | 86 | 1010.7 |
| 20260507064917 | 46 | 61 | 1.0 | 6.0 | 0.00 | 0.10 | 0.00 | 86 | 1010.7 |
| 20260507063917 | 46 | 45 | 1.0 | 4.0 | 0.00 | 0.10 | 0.00 | 86 | 1010.5 |
| 20260507062917 | 46 | 0 | 0.0 | 6.0 | 0.00 | 0.11 | 0.00 | 86 | 1010.4 |
| 20260507061917 | 46 | 0 | 0.0 | 11.0 | 0.00 | 0.12 | 0.00 | 86 | 1010.2 |
| 20260507060917 | 46 | 50 | 1.0 | 9.0 | 0.00 | 0.14 | 0.00 | 86 | 1010.1 |
| 20260507055917 | 47 | 0 | 0.0 | 9.0 | 0.00 | 0.14 | 0.00 | 86 | 1009.9 |
| 20260507054917 | 47 | 0 | 0.0 | 8.0 | 0.00 | 0.14 | 0.00 | 86 | 1009.7 |
| 20260507053917 | 47 | 0 | 0.0 | 6.0 | 0.00 | 0.15 | 0.00 | 86 | 1009.7 |
| 20260507052917 | 47 | 47 | 1.0 | 4.0 | 0.00 | 0.16 | 0.00 | 86 | 1009.5 |
| 20260507051917 | 47 | 0 | 0.0 | 3.0 | 0.00 | 0.16 | 0.00 | 86 | 1009.2 |
| 20260507050917 | 47 | 0 | 0.0 | 1.0 | 0.00 | 0.16 | 0.00 | 86 | 1009.2 |
| 20260507045917 | 47 | 0 | 0.0 | 1.0 | 0.00 | 0.17 | 0.00 | 86 | 1009.1 |
| 20260507044917 | 47 | 0 | 0.0 | 1.0 | 0.00 | 0.17 | 0.00 | 86 | 1009.0 |
| 20260507043917 | 47 | 0 | 0.0 | 1.0 | 0.00 | 0.17 | 0.00 | 86 | 1009.0 |
| 20260507042917 | 47 | 0 | 0.0 | 3.0 | 0.00 | 0.17 | 0.00 | 86 | 1008.7 |
| 20260507041916 | 47 | 0 | 0.0 | 1.0 | 0.00 | 0.17 | 0.00 | 86 | 1008.7 |
| 20260507040917 | 47 | 0 | 0.0 | 1.0 | 0.00 | 0.18 | 0.00 | 86 | 1008.7 |
| 20260507035916 | 47 | 0 | 0.0 | 4.0 | 0.00 | 0.19 | 0.00 | 86 | 1008.6 |
| 20260507034917 | 48 | 0 | 0.0 | 0.0 | 0.00 | 0.21 | 0.00 | 86 | 1008.5 |
| 20260507033917 | 48 | 0 | 0.0 | 1.0 | 0.00 | 0.21 | 0.00 | 86 | 1008.4 |
| 20260507032917 | 48 | 0 | 0.0 | 1.0 | 0.00 | 0.23 | 0.00 | 86 | 1008.4 |
| 20260507031917 | 48 | 0 | 0.0 | 0.0 | 0.00 | 0.24 | 0.00 | 86 | 1008.2 |
| 20260507030916 | 48 | 0 | 0.0 | 3.0 | 0.00 | 0.25 | 0.00 | 86 | 1008.2 |
| 20260507025916 | 48 | 0 | 0.0 | 9.0 | 0.00 | 0.26 | 0.00 | 86 | 1008.1 |
| 20260507024917 | 48 | 0 | 0.0 | 3.0 | 0.00 | 0.28 | 0.00 | 86 | 1008.1 |
| 20260507023916 | 48 | 0 | 0.0 | 6.0 | 0.00 | 0.31 | 0.00 | 86 | 1008.1 |
| 20260507022916 | 48 | 0 | 0.0 | 4.0 | 0.00 | 0.32 | 0.00 | 86 | 1008.0 |
| 20260507021916 | 48 | 0 | 0.0 | 4.0 | 0.00 | 0.33 | 0.00 | 86 | 1008.0 |
| 20260507020917 | 48 | 0 | 0.0 | 4.0 | 0.00 | 0.35 | 0.00 | 86 | 1007.7 |
| 20260507015916 | 48 | 0 | 0.0 | 3.0 | 0.00 | 0.36 | 0.00 | 86 | 1007.7 |
| 20260507014916 | 48 | 0 | 0.0 | 4.0 | 0.00 | 0.38 | 0.00 | 86 | 1007.7 |
| 20260507013916 | 48 | 0 | 0.0 | 4.0 | 0.00 | 0.39 | 0.00 | 86 | 1007.7 |
| 20260507012916 | 48 | 0 | 0.0 | 3.0 | 0.00 | 0.41 | 0.00 | 86 | 1007.7 |
| 20260507011917 | 48 | 0 | 0.0 | 3.0 | 0.00 | 0.43 | 0.00 | 86 | 1007.7 |
| 20260507010916 | 48 | 0 | 0.0 | 3.0 | 0.00 | 0.45 | 0.00 | 86 | 1007.6 |
| 20260507005916 | 48 | 0 | 0.0 | 4.0 | 0.00 | 0.47 | 0.00 | 86 | 1007.6 |
| 20260507004916 | 48 | 0 | 0.0 | 1.0 | 0.00 | 0.47 | 0.00 | 86 | 1007.5 |
| 20260507003917 | 48 | 0 | 0.0 | 1.0 | 0.00 | 0.49 | 0.00 | 86 | 1007.6 |
| 20260507002916 | 48 | 0 | 0.0 | 8.0 | 0.00 | 0.50 | 0.00 | 86 | 1007.6 |
| 20260507001916 | 48 | 0 | 0.0 | 4.0 | 0.00 | 0.51 | 0.00 | 86 | 1007.4 |
| 20260507000916 | 48 | 0 | 0.0 | 12.0 | 0.00 | 0.51 | 0.00 | 86 | 1007.2 |
| 20260506235916 | 48 | 0 | 0.0 | 8.0 | 0.00 | 0.52 | 0.00 | 86 | 1007.2 |
| 20260506234916 | 48 | 0 | 0.0 | 1.0 | 0.00 | 0.55 | 0.00 | 86 | 1007.2 |
| 20260506233916 | 48 | 0 | 0.0 | 11.0 | 0.00 | 0.56 | 0.00 | 86 | 1007.2 |
| 20260506232916 | 48 | 83 | 1.0 | 4.0 | 0.00 | 0.56 | 0.00 | 85 | 1007.2 |
| 20260506231916 | 48 | 0 | 0.0 | 8.0 | 0.00 | 0.58 | 0.00 | 85 | 1007.2 |
| 20260506230916 | 48 | 0 | 0.0 | 6.0 | 0.00 | 0.59 | 0.00 | 85 | 1007.1 |
| 20260506225916 | 48 | 0 | 0.0 | 6.0 | 0.00 | 0.61 | 0.00 | 85 | 1007.1 |
| 20260506224916 | 48 | 0 | 0.0 | 6.0 | 0.00 | 0.62 | 0.00 | 85 | 1007.1 |
| 20260506223917 | 48 | 0 | 0.0 | 4.0 | 0.00 | 0.62 | 0.00 | 84 | 1007.1 |
| 20260506222916 | 48 | 0 | 0.0 | 3.0 | 0.00 | 0.62 | 0.00 | 84 | 1007.1 |
| 20260506221916 | 48 | 0 | 0.0 | 3.0 | 0.00 | 0.63 | 0.00 | 84 | 1007.0 |
| 20260506220916 | 49 | 0 | 0.0 | 6.0 | 0.00 | 0.64 | 0.00 | 83 | 1006.9 |
| 20260506215916 | 49 | 0 | 0.0 | 3.0 | 0.00 | 0.65 | 0.00 | 83 | 1006.7 |
| 20260506214916 | 49 | 0 | 0.0 | 3.0 | 0.00 | 0.65 | 0.00 | 83 | 1006.7 |
| 20260506213916 | 49 | 0 | 0.0 | 3.0 | 0.00 | 0.65 | 0.00 | 83 | 1006.7 |
| 20260506212916 | 48 | 0 | 0.0 | 1.0 | 0.00 | 0.66 | 0.00 | 83 | 1006.7 |
| 20260506211916 | 48 | 0 | 0.0 | 1.0 | 0.00 | 0.67 | 0.00 | 84 | 1006.6 |
| 20260506210916 | 48 | 0 | 0.0 | 3.0 | 0.00 | 0.68 | 0.00 | 84 | 1006.6 |
| 20260506205916 | 48 | 0 | 0.0 | 3.0 | 0.00 | 0.69 | 0.00 | 84 | 1006.6 |
| 20260506204916 | 48 | 0 | 0.0 | 3.0 | 0.01 | 0.71 | 0.00 | 84 | 1006.6 |
| 20260506203916 | 48 | 0 | 0.0 | 1.0 | 0.01 | 0.72 | 0.00 | 84 | 1006.5 |
| 20260506202916 | 48 | 0 | 0.0 | 6.0 | 0.01 | 0.73 | 0.00 | 84 | 1006.6 |
| 20260506201916 | 49 | 0 | 0.0 | 6.0 | 0.00 | 0.73 | 0.00 | 85 | 1006.5 |
| 20260506200916 | 49 | 0 | 0.0 | 1.0 | 0.01 | 0.73 | 0.00 | 85 | 1006.5 |
| 20260506195916 | 49 | 0 | 0.0 | 4.0 | 0.00 | 0.73 | 0.00 | 85 | 1006.4 |
| 20260506194916 | 49 | 0 | 0.0 | 3.0 | 0.00 | 0.74 | 0.00 | 85 | 1006.4 |
| 20260506193916 | 49 | 0 | 0.0 | 1.0 | 0.00 | 0.74 | 0.00 | 85 | 1006.2 |
| 20260506192916 | 49 | 0 | 0.0 | 3.0 | 0.00 | 0.74 | 0.00 | 85 | 1006.1 |
| 20260506191916 | 49 | 0 | 0.0 | 1.0 | 0.01 | 0.74 | 0.00 | 85 | 1006.0 |
| 20260506190916 | 49 | 0 | 0.0 | 3.0 | 0.00 | 0.73 | 0.00 | 86 | 1005.9 |
| 20260506185916 | 49 | 0 | 0.0 | 3.0 | 0.00 | 0.73 | 0.00 | 86 | 1005.7 |
| 20260506184916 | 49 | 0 | 0.0 | 1.0 | 0.00 | 0.73 | 0.00 | 86 | 1005.6 |
| 20260506183916 | 49 | 0 | 0.0 | 1.0 | 0.00 | 0.73 | 0.00 | 86 | 1005.5 |
| 20260506182916 | 49 | 0 | 0.0 | 4.0 | 0.00 | 0.73 | 0.00 | 86 | 1005.4 |
| 20260506181916 | 49 | 0 | 0.0 | 6.0 | 0.00 | 0.72 | 0.00 | 86 | 1005.4 |
| 20260506180916 | 50 | 0 | 0.0 | 3.0 | 0.00 | 0.72 | 0.00 | 85 | 1005.2 |
| 20260506175916 | 50 | 0 | 0.0 | 1.0 | 0.00 | 0.72 | 0.00 | 85 | 1005.2 |
| 20260506174916 | 50 | 0 | 0.0 | 3.0 | 0.00 | 0.72 | 0.00 | 85 | 1005.1 |
| 20260506173916 | 50 | 0 | 0.0 | 3.0 | 0.00 | 0.72 | 0.00 | 85 | 1005.0 |
| 20260506172916 | 50 | 0 | 0.0 | 3.0 | 0.00 | 0.72 | 0.00 | 85 | 1005.2 |
| 20260506171916 | 50 | 0 | 0.0 | 3.0 | 0.00 | 0.72 | 0.00 | 85 | 1005.2 |
| 20260506170916 | 50 | 0 | 0.0 | 1.0 | 0.00 | 0.72 | 0.00 | 85 | 1005.0 |
| 20260506165916 | 50 | 0 | 0.0 | 1.0 | 0.00 | 0.72 | 0.00 | 84 | 1005.0 |
| 20260506164916 | 51 | 0 | 0.0 | 3.0 | 0.00 | 0.72 | 0.00 | 84 | 1004.9 |
| 20260506163916 | 50 | 0 | 0.0 | 4.0 | 0.00 | 0.72 | 0.00 | 84 | 1004.7 |
| 20260506162916 | 51 | 0 | 0.0 | 3.0 | 0.00 | 0.72 | 0.00 | 84 | 1004.7 |
| 20260506161916 | 51 | 0 | 0.0 | 3.0 | 0.00 | 0.72 | 0.00 | 84 | 1004.7 |
| 20260506160916 | 51 | 0 | 0.0 | 1.0 | 0.00 | 0.72 | 0.00 | 83 | 1004.7 |
| 20260506155916 | 51 | 0 | 0.0 | 1.0 | 0.00 | 0.72 | 0.00 | 84 | 1004.7 |
| 20260506154916 | 51 | 0 | 0.0 | 3.0 | 0.00 | 0.72 | 0.00 | 83 | 1004.7 |
| 20260506153916 | 51 | 0 | 0.0 | 4.0 | 0.00 | 0.72 | 0.00 | 84 | 1004.7 |
| 20260506152916 | 51 | 0 | 0.0 | 3.0 | 0.00 | 0.72 | 0.00 | 83 | 1004.9 |
| 20260506151916 | 51 | 0 | 0.0 | 3.0 | 0.00 | 0.72 | 0.00 | 83 | 1004.7 |
| 20260506150916 | 51 | 0 | 0.0 | 3.0 | 0.00 | 0.72 | 0.00 | 83 | 1004.7 |
| 20260506145916 | 51 | 0 | 0.0 | 3.0 | 0.00 | 0.72 | 0.00 | 83 | 1004.7 |
| 20260506144916 | 51 | 0 | 0.0 | 6.0 | 0.00 | 0.72 | 0.00 | 83 | 1004.6 |
| 20260506143916 | 52 | 0 | 0.0 | 3.0 | 0.00 | 0.72 | 0.00 | 82 | 1004.6 |
| 20260506142916 | 52 | 0 | 0.0 | 3.0 | 0.00 | 0.72 | 0.00 | 82 | 1004.6 |
| 20260506141916 | 52 | 0 | 0.0 | 3.0 | 0.00 | 0.72 | 0.00 | 82 | 1004.6 |
| 20260506140916 | 52 | 0 | 0.0 | 4.0 | 0.00 | 0.72 | 0.00 | 82 | 1004.6 |
| 20260506135916 | 52 | 0 | 0.0 | 6.0 | 0.00 | 0.72 | 0.00 | 82 | 1004.5 |
| 20260506134916 | 51 | 54 | 1.0 | 6.0 | 0.00 | 0.72 | 0.00 | 82 | 1004.5 |
| 20260506133917 | 51 | 44 | 3.0 | 8.0 | 0.00 | 0.72 | 0.00 | 82 | 1004.5 |
| 20260506132916 | 52 | 0 | 0.0 | 4.0 | 0.00 | 0.72 | 0.00 | 82 | 1004.5 |
| 20260506131916 | 51 | 0 | 0.0 | 6.0 | 0.00 | 0.72 | 0.00 | 82 | 1004.5 |
| 20260506130916 | 52 | 0 | 0.0 | 8.0 | 0.00 | 0.72 | 0.00 | 82 | 1004.4 |
| 20260506125916 | 52 | 0 | 0.0 | 4.0 | 0.00 | 0.72 | 0.00 | 81 | 1004.4 |
| 20260506124916 | 51 | 0 | 0.0 | 4.0 | 0.00 | 0.73 | 0.00 | 81 | 1004.4 |
| 20260506123916 | 52 | 0 | 0.0 | 1.0 | 0.00 | 0.73 | 0.00 | 81 | 1004.2 |
| 20260506122916 | 51 | 0 | 0.0 | 8.0 | 0.00 | 0.78 | 0.00 | 81 | 1004.2 |
| 20260506121916 | 51 | 0 | 0.0 | 4.0 | 0.00 | 0.78 | 0.00 | 81 | 1004.2 |
| 20260506120916 | 51 | 0 | 0.0 | 8.0 | 0.00 | 0.78 | 0.00 | 81 | 1004.1 |
| 20260506115916 | 51 | 0 | 0.0 | 4.0 | 0.00 | 0.78 | 0.00 | 82 | 1004.0 |
| 20260506114916 | 51 | 53 | 4.0 | 9.0 | 0.00 | 0.78 | 0.00 | 81 | 1004.1 |
| 20260506113916 | 51 | 53 | 1.0 | 8.0 | 0.00 | 0.78 | 0.00 | 81 | 1004.0 |
| 20260506112916 | 51 | 87 | 1.0 | 9.0 | 0.00 | 0.78 | 0.00 | 82 | 1004.0 |
| 20260506111916 | 51 | 51 | 1.0 | 14.0 | 0.00 | 0.78 | 0.00 | 81 | 1003.9 |
| 20260506110916 | 51 | 53 | 4.0 | 9.0 | 0.00 | 0.78 | 0.00 | 81 | 1003.7 |
| 20260506105916 | 51 | 71 | 1.0 | 8.0 | 0.00 | 0.78 | 0.00 | 81 | 1003.7 |
| 20260506104916 | 51 | 23 | 1.0 | 11.0 | 0.00 | 0.78 | 0.00 | 81 | 1003.9 |
| 20260506103916 | 51 | 0 | 0.0 | 9.0 | 0.00 | 0.78 | 0.00 | 81 | 1004.0 |
| 20260506102916 | 51 | 55 | 1.0 | 9.0 | 0.00 | 0.78 | 0.00 | 81 | 1003.9 |
| 20260506101916 | 51 | 0 | 0.0 | 6.0 | 0.00 | 0.78 | 0.00 | 81 | 1003.7 |
| 20260506100916 | 51 | 36 | 1.0 | 12.0 | 0.00 | 0.78 | 0.00 | 81 | 1003.7 |
| 20260506095916 | 51 | 0 | 0.0 | 11.0 | 0.00 | 0.78 | 0.00 | 81 | 1003.6 |
| 20260506094916 | 51 | 78 | 1.0 | 8.0 | 0.00 | 0.78 | 0.00 | 81 | 1003.5 |
| 20260506093916 | 51 | 48 | 1.0 | 6.0 | 0.00 | 0.78 | 0.00 | 81 | 1003.5 |
| 20260506092916 | 51 | 0 | 0.0 | 6.0 | 0.00 | 0.78 | 0.00 | 81 | 1003.5 |
| 20260506091916 | 51 | 0 | 0.0 | 11.0 | 0.00 | 0.78 | 0.00 | 81 | 1003.4 |
| 20260506090916 | 51 | 67 | 1.0 | 8.0 | 0.00 | 0.78 | 0.00 | 81 | 1003.4 |
| 20260506085916 | 51 | 61 | 1.0 | 11.0 | 0.00 | 0.78 | 0.00 | 81 | 1003.2 |
| 20260506084916 | 51 | 0 | 0.0 | 6.0 | 0.00 | 0.78 | 0.00 | 80 | 1003.2 |
| 20260506083916 | 51 | 0 | 0.0 | 6.0 | 0.00 | 0.77 | 0.00 | 81 | 1003.2 |